Regional Weather Roundup
Issued by NWS

Home | Current Version | Previous Version | Text Only | Print | Product List | Glossary On
Versions: 1 2 3 4 5 6 7 8 9 10 11 12 13 14 15 16 17 18 19 20 21 22 23 24 25 26 27 28 29 30 31 32 33 34 35 36 37 38 39 40 41 42 43 44 45 46 47 48 49 50
000
ASUS44 KBMX 240310
RWRAL

ALABAMA REGIONAL WEATHER ROUNDUP
NATIONAL WEATHER SERVICE BIRMINGHAM AL
1000 PM CDT TUE MAY 23 2017

NOTE: "FAIR" INDICATES FEW OR NO CLOUDS BELOW 12,000 FEET
WITH NO SIGNIFICANT WEATHER AND/OR OBSTRUCTIONS TO VISIBILITY.

THE REMARK "TC" DENOTES TEMPERATURE IN DEGREES CELSIUS.

ALZ001>011-014-016>018-020-240400-
NORTH ALABAMA

CITY           SKY/WX    TMP DP  RH WIND       PRES   REMARKS
MUSCLE SHOALS  MOCLDY    68  62  81 S5        29.68R
HUNTSVILLE     CLOUDY    70  68  93 SW5       29.68R
DECATUR        CLOUDY    70  64  81 W3        29.68R
HALEYVILLE     FAIR      63  62  97 CALM      29.72S
GADSDEN        CLOUDY    64  64 100 CALM      29.71R
$$

ALZ012-013-022-023-030>036-040>044-240400-
WEST CENTRAL ALABAMA

CITY           SKY/WX    TMP DP  RH WIND       PRES   REMARKS
TUSCALOOSA     CLOUDY    69  69 100 CALM      29.69S
$$

ALZ015-024>027-033>036-040>044-240400-
CENTRAL ALABAMA

CITY           SKY/WX    TMP DP  RH WIND       PRES   REMARKS
BIRMINGHAM     CLOUDY    68  66  93 CALM      29.72R
MONTGOMERY     TSTM      73  67  81 W5        29.69R
SHELBY CO ARPT MOCLDY    68  68 100 CALM      29.70R
MAXWELL AFB    TSTM      70  64  83 W12G22    29.70R VSB 3/4
GREENVILLE     FAIR      69  65  86 W7        29.68S THUNDER
$$

ALZ019-021-028-029-037-038-045>048-240400-
EAST CENTRAL ALABAMA

CITY           SKY/WX    TMP DP  RH WIND       PRES   REMARKS
ANNISTON       CLOUDY    64  64 100 CALM      29.71R
ALEXANDER CITY CLOUDY    68  67  98 W3        29.71R
AUBURN         CLOUDY    67  66  97 CALM      29.73R
$$

ALZ051>064-240400-
SOUTHWEST ALABAMA

CITY           SKY/WX    TMP DP  RH WIND       PRES   REMARKS
MOBILE         MOCLDY    73  70  90 SW3       29.72R
BROOKLEY FIELD PTCLDY    75  73  93 CALM      29.72R
EVERGREEN      PTCLDY    67  65  93 CALM      29.71S
$$

ALZ049-050-065>069-240400-
SOUTHEAST ALABAMA

CITY           SKY/WX    TMP DP  RH WIND       PRES   REMARKS
DOTHAN         CLEAR     73  70  90 SW14      29.72S
OZARK          PTCLDY    74  69  85 S15       29.69S
TROY           CLOUDY    70  70 100 NW3       29.71R
EUFAULA        MOCLDY    70  68  93 CALM      29.69S
$$



USA.gov is the U.S. government's official web portal to all federal, state and local government web resources and services.